Weather History for KRAC - September, 2012

Change the Weather History Date:

Saturday, September 22, 2012

  Actual Average Record
Temperature  
Mean Temperature 50 °F -  
Max Temperature 57 °F 65 °F 85 °F (1956)
Min Temperature 42 °F 50 °F 36 °F (1983)
Degree Days  
Heating Degree Days 16    
Moisture  
Dew Point 43 °F    
Average Humidity 85    
Maximum Humidity 100    
Minimum Humidity 53    
Precipitation  
Precipitation 0.01 in - - ()
Sea Level Pressure  
Sea Level Pressure 29.92 in    
Wind  
Wind Speed 6 mph (WNW)    
Max Wind Speed 20 mph    
Max Gust Speed 30 mph    
Visibility 7 miles    
Events Fog , Rain , Thunderstorm    
Averages and records for this station are not official NWS values.
T = Trace of Precipitation, MM = Missing Value Source: NWS Daily Summary

Daily Weather History Graph

Daily Weather History Graph

Search for Another Location

Airport or City:

Trip Planner

Search our weather history database for the weather conditions in past years. The results will help you decide how hot, cold, wet, or windy it might be!

Date:

Astronomy

Sep. 22, 2012 Rise Set
Actual Time 6:39 AM CDT 6:47 PM CDT
Civil Twilight 6:10 AM CDT 7:15 PM CDT
Nautical Twilight 5:37 AM CDT 7:48 PM CDT
Astronomical Twilight 5:03 AM CDT 8:22 PM CDT
Moon 2:04 PM CDT (9/22) 11:44 PM CDT (9/22)
Length of Visible Light 13h 04m
Length of Day
12h 08m
Waxing Crescent, 49% of the Moon is Illuminated
Sep 22
Waxing Crescent
Sep 22
First Quarter
Sep 29
Full
Oct 8
Last Quarter
Oct 15
New

Hourly Weather History & Observations

Time (CDT) Temp. Windchill Dew Point Humidity Pressure Visibility Wind Dir Wind Speed Gust Speed Precip Events Conditions
12:53 AM 50.0 °F - 48.0 °F 93% 29.81 in 10.0 mi West 6.9 mph - N/A   Overcast
1:53 AM 50.0 °F - 48.0 °F 93% 29.81 in 8.0 mi West 6.9 mph - N/A   Scattered Clouds
2:53 AM 48.9 °F - 46.9 °F 93% 29.80 in 7.0 mi West 5.8 mph - N/A   Clear
3:53 AM 46.9 °F - 46.0 °F 97% 29.81 in 6.0 mi Calm Calm - N/A   Clear
4:53 AM 46.0 °F - 45.0 °F 96% 29.80 in 5.0 mi Calm Calm - N/A   Clear
5:03 AM 44.6 °F - 44.6 °F 100% 29.79 in 3.0 mi Calm Calm - N/A   Scattered Clouds
5:05 AM 44.6 °F - 44.6 °F 100% 29.79 in 2.0 mi Calm Calm - N/A   Mostly Cloudy
5:07 AM 44.6 °F - 44.6 °F 100% 29.79 in 1.2 mi Calm Calm - N/A   Mostly Cloudy
5:15 AM 44.6 °F - 44.6 °F 100% 29.80 in 0.2 mi Calm Calm - N/A Fog Fog
5:53 AM 43.0 °F - 43.0 °F 100% 29.80 in 0.2 mi Calm Calm - N/A Fog Fog
6:29 AM 44.6 °F - 44.6 °F 100% 29.80 in 0.5 mi Calm Calm - N/A Fog , Thunderstorm Fog
6:35 AM 44.6 °F 40.2 °F 44.6 °F 100% 29.81 in 2.0 mi West 8.1 mph - 0.01 in Rain , Thunderstorm Light Rain
6:39 AM 46.4 °F 42.9 °F 44.6 °F 93% 29.81 in 4.0 mi West 6.9 mph - 0.01 in Rain , Thunderstorm Light Rain
6:53 AM 46.9 °F - 46.0 °F 97% 29.82 in 9.0 mi WNW 6.9 mph - 0.01 in Thunderstorm Thunderstorm
7:00 AM 46.4 °F 43.5 °F 46.4 °F 100% 29.81 in 8.0 mi WNW 5.8 mph - N/A Thunderstorm Overcast
7:14 AM 46.4 °F 44.3 °F 46.4 °F 100% 29.81 in 7.0 mi NW 4.6 mph - N/A Thunderstorm Overcast
7:22 AM 46.4 °F 43.5 °F 46.4 °F 100% 29.80 in 7.0 mi NNW 5.8 mph - N/A Thunderstorm Overcast
7:29 AM 46.4 °F 43.5 °F 46.4 °F 100% 29.82 in 7.0 mi West 5.8 mph - 0.00 in Rain Light Rain
8:39 AM 42.8 °F 34.8 °F 39.2 °F 87% 29.86 in 10.0 mi West 17.3 mph 26.5 mph 0.00 in   Overcast
8:53 AM 42.1 °F 33.6 °F 39.0 °F 89% 29.88 in 10.0 mi WNW 18.4 mph 25.3 mph 0.00 in   Overcast
9:53 AM 42.1 °F 33.3 °F 37.0 °F 82% 29.93 in 10.0 mi NW 19.6 mph 29.9 mph N/A   Overcast
10:53 AM 45.0 °F 37.4 °F 37.9 °F 76% 29.95 in 10.0 mi WNW 18.4 mph 27.6 mph N/A   Mostly Cloudy
11:53 AM 48.9 °F - 39.0 °F 69% 29.98 in 10.0 mi WNW 17.3 mph 25.3 mph N/A   Clear
12:53 PM 53.1 °F - 41.0 °F 64% 30.01 in 10.0 mi WNW 13.8 mph - N/A   Clear
1:53 PM 54.0 °F - 39.9 °F 59% 30.03 in 10.0 mi NW 12.7 mph 21.9 mph N/A   Partly Cloudy
3:53 PM 57.0 °F - 39.9 °F 53% 30.06 in 10.0 mi NW 15.0 mph 20.7 mph N/A   Partly Cloudy
4:53 PM 57.0 °F - 39.9 °F 53% 30.09 in 10.0 mi WNW 12.7 mph 20.7 mph N/A   Scattered Clouds
5:53 PM 54.0 °F - 39.9 °F 59% 30.12 in 10.0 mi West 13.8 mph 19.6 mph N/A   Clear
6:53 PM 52.0 °F - 39.9 °F 63% 30.12 in 10.0 mi West 3.5 mph - N/A   Partly Cloudy
7:53 PM 50.0 °F - 41.0 °F 71% 30.13 in 10.0 mi West 6.9 mph - N/A   Mostly Cloudy
8:53 PM 48.9 °F - 39.9 °F 71% 30.15 in 10.0 mi West 5.8 mph - N/A   Scattered Clouds
9:53 PM 46.9 °F - 39.9 °F 77% 30.17 in 10.0 mi West 4.6 mph - N/A   Clear
10:53 PM 46.0 °F 43.1 °F 39.0 °F 76% 30.17 in 10.0 mi WNW 5.8 mph - N/A   Scattered Clouds
11:53 PM 45.0 °F 41.8 °F 37.9 °F 76% 30.18 in 10.0 mi WNW 5.8 mph - N/A   Partly Cloudy